TimeEDT,TemperatureF,Dew PointF,Humidity,Sea Level PressureIn,VisibilityMPH,Wind Direction,Wind SpeedMPH,Gust SpeedMPH,PrecipitationIn,Events,Conditions,WindDirDegrees,DateUTC
12:53 AM,48.0,33.1,56,29.98,10.0,NE,5.8,-,N/A,,Clear,50,2013-05-28 04:53:00
1:53 AM,46.0,34.0,63,29.96,10.0,NE,4.6,-,N/A,,Clear,40,2013-05-28 05:53:00
2:53 AM,48.9,33.1,54,29.94,10.0,ENE,8.1,-,N/A,,Clear,60,2013-05-28 06:53:00
3:53 AM,50.0,33.1,52,29.91,10.0,ENE,6.9,-,N/A,,Scattered Clouds,70,2013-05-28 07:53:00
4:53 AM,50.0,34.0,54,29.91,10.0,ENE,4.6,-,N/A,,Mostly Cloudy,60,2013-05-28 08:53:00
5:53 AM,50.0,34.0,54,29.90,10.0,ENE,6.9,-,N/A,,Overcast,70,2013-05-28 09:53:00
6:53 AM,48.9,34.0,56,29.89,10.0,ENE,6.9,-,N/A,,Overcast,60,2013-05-28 10:53:00
7:53 AM,48.9,35.1,59,29.89,10.0,East,6.9,-,N/A,,Overcast,80,2013-05-28 11:53:00
8:53 AM,48.9,36.0,61,29.88,10.0,ENE,8.1,-,N/A,,Overcast,70,2013-05-28 12:53:00
9:53 AM,51.1,37.0,59,29.87,10.0,ENE,5.8,-,N/A,,Overcast,60,2013-05-28 13:53:00
10:53 AM,53.1,37.9,57,29.86,10.0,East,9.2,-,N/A,,Overcast,80,2013-05-28 14:53:00
11:53 AM,53.1,37.9,57,29.86,10.0,East,6.9,-,N/A,,Overcast,100,2013-05-28 15:53:00
12:53 PM,53.1,37.9,57,29.86,10.0,East,6.9,-,N/A,,Overcast,80,2013-05-28 16:53:00
1:53 PM,54.0,39.0,57,29.83,10.0,East,11.5,-,N/A,,Overcast,90,2013-05-28 17:53:00
2:49 PM,55.4,39.2,54,29.80,10.0,East,12.7,-,N/A,,Overcast,100,2013-05-28 18:49:00
2:53 PM,54.0,39.9,59,29.81,10.0,ESE,12.7,-,N/A,,Overcast,110,2013-05-28 18:53:00
3:53 PM,52.0,44.1,74,29.81,10.0,East,8.1,-,N/A,,Overcast,90,2013-05-28 19:53:00
4:18 PM,51.8,44.6,76,29.79,10.0,East,8.1,-,N/A,,Overcast,90,2013-05-28 20:18:00
4:53 PM,53.1,44.1,71,29.80,10.0,East,9.2,-,N/A,,Overcast,100,2013-05-28 20:53:00
5:00 PM,53.6,42.8,67,29.78,10.0,ENE,9.2,-,N/A,,Overcast,70,2013-05-28 21:00:00
5:53 PM,52.0,44.1,74,29.79,10.0,East,9.2,-,N/A,,Overcast,100,2013-05-28 21:53:00
6:53 PM,52.0,44.1,74,29.78,10.0,East,8.1,-,N/A,,Overcast,80,2013-05-28 22:53:00
7:53 PM,51.1,45.0,80,29.78,10.0,East,10.4,-,N/A,,Partly Cloudy,100,2013-05-28 23:53:00
8:53 PM,51.1,46.0,83,29.77,10.0,East,6.9,-,N/A,,Overcast,90,2013-05-29 00:53:00
9:53 PM,50.0,46.9,89,29.76,10.0,East,4.6,-,N/A,,Overcast,80,2013-05-29 01:53:00
10:53 PM,50.0,46.0,86,29.76,10.0,Calm,Calm,-,N/A,,Overcast,0,2013-05-29 02:53:00
11:53 PM,50.0,46.9,89,29.75,10.0,NE,4.6,-,N/A,,Overcast,50,2013-05-29 03:53:00